| time (UTC) | temp F | wind direction | speed MPH | gust MPH | rain 1hr in | rain 24hr in | rain mn in | humidity % | barometer mb |
| 20260510191338 | 65 | 68 | 4.0 | 7.0 | 0.00 | 0.09 | 0.00 | 46 | 1016.2 |
| 20260510190428 | 64 | 90 | 2.0 | 5.0 | 0.00 | 0.09 | 0.00 | 53 | 1016.3 |
| 20260510185554 | 65 | 270 | 3.0 | 7.0 | 0.00 | 0.09 | 0.00 | 54 | 1016.4 |
| 20260510185448 | 65 | 270 | 3.0 | 7.0 | 0.00 | 0.09 | 0.00 | 54 | 1016.4 |
| 20260510184608 | 64 | 45 | 4.0 | 10.0 | 0.00 | 0.09 | 0.00 | 48 | 1016.5 |
| 20260510183638 | 64 | 112 | 3.0 | 6.0 | 0.00 | 0.09 | 0.00 | 52 | 1016.5 |
| 20260510182948 | 65 | 112 | 3.0 | 6.0 | 0.00 | 0.09 | 0.00 | 48 | 1016.6 |
| 20260510182808 | 65 | 112 | 3.0 | 6.0 | 0.00 | 0.09 | 0.00 | 48 | 1016.6 |
| 20260510180903 | 64 | 158 | 3.0 | 7.0 | 0.00 | 0.09 | 0.00 | 49 | 1016.8 |
| 20260510175908 | 63 | 22 | 5.0 | 12.0 | 0.00 | 0.09 | 0.00 | 49 | 1016.7 |
| 20260510174908 | 63 | 45 | 3.0 | 6.0 | 0.00 | 0.09 | 0.00 | 54 | 1016.7 |
| 20260510173933 | 63 | 112 | 3.0 | 9.0 | 0.00 | 0.09 | 0.00 | 53 | 1016.7 |
| 20260510172133 | 63 | 45 | 5.0 | 9.0 | 0.00 | 0.09 | 0.00 | 52 | 1016.8 |
| 20260510171158 | 63 | 180 | 2.0 | 4.0 | 0.00 | 0.09 | 0.00 | 55 | 1016.9 |
| 20260510170254 | 62 | 202 | 2.0 | 5.0 | 0.00 | 0.09 | 0.00 | 59 | 1017.0 |
| 20260510165353 | 62 | 225 | 2.0 | 5.0 | 0.00 | 0.09 | 0.00 | 60 | 1016.9 |
| 20260510164538 | 61 | 225 | 2.0 | 4.0 | 0.00 | 0.09 | 0.00 | 60 | 1016.9 |
| 20260510163856 | 61 | 158 | 3.0 | 6.0 | 0.00 | 0.09 | 0.00 | 60 | 1016.9 |
| 20260510163658 | 61 | 158 | 3.0 | 6.0 | 0.00 | 0.09 | 0.00 | 60 | 1016.9 |
| 20260510162738 | 61 | 180 | 3.0 | 9.0 | 0.00 | 0.09 | 0.00 | 65 | 1016.9 |
| 20260510161918 | 59 | 180 | 3.0 | 6.0 | 0.00 | 0.09 | 0.00 | 67 | 1017.0 |
| 20260510160958 | 58 | 135 | 2.0 | 4.0 | 0.00 | 0.09 | 0.00 | 70 | 1016.9 |
| 20260510160158 | 57 | 158 | 2.0 | 4.0 | 0.00 | 0.09 | 0.00 | 70 | 1016.9 |
| 20260510155241 | 56 | 180 | 1.0 | 3.0 | 0.00 | 0.09 | 0.00 | 72 | 1016.9 |
| 20260510154253 | 56 | 180 | 2.0 | 4.0 | 0.00 | 0.09 | 0.00 | 74 | 1016.9 |
| 20260510153433 | 56 | 202 | 1.0 | 3.0 | 0.00 | 0.09 | 0.00 | 72 | 1017.0 |
| 20260510152521 | 56 | 202 | 2.0 | 3.0 | 0.00 | 0.09 | 0.00 | 76 | 1016.9 |
| 20260510151857 | 55 | 158 | 1.0 | 3.0 | 0.00 | 0.09 | 0.00 | 75 | 1016.8 |
| 20260510151658 | 55 | 158 | 1.0 | 3.0 | 0.00 | 0.09 | 0.00 | 75 | 1016.8 |
| 20260510150659 | 54 | 225 | 1.0 | 5.0 | 0.00 | 0.09 | 0.00 | 79 | 1016.8 |
| 20260510145731 | 53 | 112 | 1.0 | 2.0 | 0.00 | 0.09 | 0.00 | 78 | 1016.8 |
| 20260510144813 | 52 | 68 | 1.0 | 2.0 | 0.00 | 0.09 | 0.00 | 81 | 1016.9 |
| 20260510143818 | 52 | 158 | 1.0 | 3.0 | 0.00 | 0.09 | 0.00 | 84 | 1016.8 |
| 20260510142928 | 51 | 158 | 2.0 | 4.0 | 0.00 | 0.09 | 0.00 | 87 | 1016.9 |
| 20260510142448 | 50 | 158 | 1.0 | 5.0 | 0.00 | 0.09 | 0.00 | 88 | 1016.9 |
| 20260510141958 | 50 | 158 | 1.0 | 5.0 | 0.00 | 0.09 | 0.00 | 88 | 1016.9 |
| 20260510141008 | 49 | 180 | 1.0 | 4.0 | 0.00 | 0.09 | 0.00 | 90 | 1016.9 |
| 20260510140133 | 49 | 180 | 1.0 | 4.0 | 0.00 | 0.09 | 0.00 | 89 | 1017.0 |
| 20260510135239 | 49 | 158 | 2.0 | 5.0 | 0.00 | 0.09 | 0.00 | 91 | 1016.9 |
| 20260510134426 | 49 | 180 | 3.0 | 6.0 | 0.00 | 0.09 | 0.00 | 93 | 1016.9 |
| 20260510133501 | 48 | 135 | 1.0 | 4.0 | 0.00 | 0.09 | 0.00 | 93 | 1017.1 |
| 20260510132518 | 47 | 158 | 1.0 | 4.0 | 0.00 | 0.09 | 0.00 | 93 | 1016.9 |
| 20260510131523 | 47 | 135 | 1.0 | 2.0 | 0.00 | 0.09 | 0.00 | 94 | 1017.0 |
| 20260510130713 | 46 | 158 | 1.0 | 4.0 | 0.00 | 0.09 | 0.00 | 93 | 1017.0 |
| 20260510125748 | 46 | 225 | 1.0 | 4.0 | 0.00 | 0.09 | 0.00 | 93 | 1017.0 |
| 20260510124753 | 46 | 180 | 3.0 | 5.0 | 0.00 | 0.09 | 0.00 | 93 | 1016.8 |
| 20260510123853 | 46 | 158 | 2.0 | 5.0 | 0.00 | 0.09 | 0.00 | 93 | 1016.7 |
| 20260510123021 | 45 | 135 | 1.0 | 4.0 | 0.00 | 0.09 | 0.00 | 92 | 1016.8 |
| 20260510122052 | 45 | 158 | 2.0 | 3.0 | 0.00 | 0.09 | 0.00 | 92 | 1016.9 |
| 20260510121151 | 45 | 45 | 1.0 | 2.0 | 0.00 | 0.09 | 0.00 | 92 | 1016.8 |
| 20260510120328 | 46 | 0 | 0.0 | 0.0 | 0.00 | 0.09 | 0.00 | 92 | 1016.9 |
| 20260510115428 | 46 | 0 | 0.0 | 1.0 | 0.00 | 0.09 | 0.00 | 92 | 1016.9 |
| 20260510113733 | 46 | 45 | 1.0 | 3.0 | 0.00 | 0.09 | 0.00 | 92 | 1016.8 |
| 20260510112801 | 46 | 22 | 2.0 | 4.0 | 0.00 | 0.09 | 0.00 | 92 | 1016.7 |
| 20260510111938 | 46 | 0 | 2.0 | 5.0 | 0.00 | 0.09 | 0.00 | 92 | 1016.6 |
| 20260510111018 | 47 | 22 | 3.0 | 6.0 | 0.01 | 0.09 | 0.00 | 92 | 1016.3 |
| 20260510110128 | 47 | 45 | 2.0 | 5.0 | 0.01 | 0.09 | 0.00 | 92 | 1016.3 |
| 20260510105238 | 47 | 22 | 2.0 | 4.0 | 0.01 | 0.09 | 0.00 | 92 | 1016.2 |
| 20260510104300 | 47 | 45 | 3.0 | 6.0 | 0.01 | 0.09 | 0.00 | 92 | 1016.3 |
| 20260510102548 | 48 | 0 | 3.0 | 9.0 | 0.01 | 0.09 | 0.00 | 93 | 1016.2 |
| 20260510101858 | 48 | 45 | 3.0 | 6.0 | 0.02 | 0.09 | 0.00 | 93 | 1016.1 |
| 20260510101653 | 48 | 45 | 3.0 | 6.0 | 0.02 | 0.09 | 0.00 | 93 | 1016.1 |
| 20260510100733 | 48 | 22 | 3.0 | 6.0 | 0.01 | 0.08 | 0.00 | 93 | 1016.0 |
| 20260510095744 | 48 | 22 | 4.0 | 10.0 | 0.01 | 0.08 | 0.00 | 92 | 1016.0 |
| 20260510094748 | 49 | 22 | 3.0 | 5.0 | 0.01 | 0.08 | 0.00 | 93 | 1015.7 |
| 20260510093838 | 48 | 22 | 2.0 | 3.0 | 0.01 | 0.08 | 0.00 | 93 | 1015.7 |
| 20260510092858 | 48 | 0 | 0.0 | 2.0 | 0.01 | 0.08 | 0.00 | 93 | 1015.4 |
| 20260510091938 | 48 | 0 | 0.0 | 2.0 | 0.00 | 0.07 | 0.00 | 92 | 1015.4 |
| 20260510091057 | 48 | 22 | 1.0 | 2.0 | 0.00 | 0.07 | 0.00 | 92 | 1015.2 |
| 20260510090208 | 48 | 0 | 0.0 | 0.0 | 0.00 | 0.07 | 0.00 | 92 | 1014.9 |
| 20260510085551 | 48 | 0 | 0.0 | 0.0 | 0.00 | 0.07 | 0.00 | 92 | 1014.9 |
| 20260510085333 | 48 | 0 | 0.0 | 0.0 | 0.00 | 0.07 | 0.00 | 92 | 1014.9 |
| 20260510084438 | 48 | 0 | 0.0 | 1.0 | 0.00 | 0.07 | 0.00 | 92 | 1014.8 |
| 20260510083453 | 48 | 158 | 1.0 | 3.0 | 0.00 | 0.07 | 0.00 | 92 | 1014.7 |
| 20260510082618 | 48 | 180 | 1.0 | 3.0 | 0.00 | 0.07 | 0.00 | 92 | 1014.5 |
| 20260510081628 | 48 | 0 | 0.0 | 0.0 | 0.00 | 0.07 | 0.00 | 92 | 1014.8 |
| 20260510080845 | 48 | 0 | 0.0 | 2.0 | 0.00 | 0.07 | 0.00 | 92 | 1014.7 |
| 20260510080733 | 48 | 0 | 0.0 | 2.0 | 0.00 | 0.07 | 0.00 | 92 | 1014.7 |
| 20260510075909 | 48 | 0 | 0.0 | 2.0 | 0.00 | 0.07 | 0.00 | 91 | 1014.8 |
| 20260510075024 | 48 | 0 | 0.0 | 1.0 | 0.00 | 0.07 | 0.00 | 91 | 1014.6 |
| 20260510074200 | 48 | 0 | 0.0 | 2.0 | 0.00 | 0.07 | 0.00 | 91 | 1014.5 |
| 20260510074043 | 48 | 0 | 0.0 | 2.0 | 0.00 | 0.07 | 0.00 | 91 | 1014.5 |
| 20260510073138 | 48 | 0 | 0.0 | 2.0 | 0.00 | 0.07 | 0.00 | 91 | 1014.6 |
| 20260510072258 | 48 | 112 | 1.0 | 3.0 | 0.00 | 0.07 | 0.00 | 91 | 1014.6 |
| 20260510071857 | 48 | 135 | 3.0 | 4.0 | 0.00 | 0.07 | 0.00 | 91 | 1014.5 |
| 20260510071433 | 48 | 135 | 3.0 | 4.0 | 0.00 | 0.07 | 0.00 | 91 | 1014.5 |
| 20260510070522 | 48 | 158 | 1.0 | 3.0 | 0.00 | 0.07 | 0.00 | 91 | 1014.9 |
| 20260510064701 | 48 | 248 | 1.0 | 3.0 | 0.00 | 0.07 | 0.00 | 90 | 1015.2 |
| 20260510063841 | 48 | 0 | 0.0 | 2.0 | 0.00 | 0.07 | 0.00 | 90 | 1015.1 |
| 20260510062909 | 48 | 135 | 2.0 | 4.0 | 0.00 | 0.07 | 0.00 | 90 | 1014.8 |
| 20260510062058 | 48 | 158 | 2.0 | 4.0 | 0.00 | 0.07 | 0.00 | 90 | 1014.8 |
| 20260510061243 | 48 | 158 | 1.0 | 4.0 | 0.00 | 0.07 | 0.00 | 89 | 1014.8 |
| 20260510060448 | 48 | 135 | 1.0 | 3.0 | 0.00 | 0.07 | 0.00 | 89 | 1015.0 |
| 20260510060403 | 48 | 135 | 1.0 | 3.0 | 0.00 | 0.07 | 0.00 | 89 | 1015.0 |
| 20260510055946 | 48 | 158 | 2.0 | 4.0 | 0.00 | 0.07 | 0.00 | 89 | 1015.1 |
| 20260510055558 | 48 | 158 | 2.0 | 4.0 | 0.00 | 0.07 | 0.00 | 89 | 1015.1 |
| 20260510054618 | 49 | 135 | 2.0 | 4.0 | 0.02 | 0.07 | 0.00 | 89 | 1015.1 |
| 20260510053803 | 49 | 158 | 2.0 | 3.0 | 0.04 | 0.07 | 0.00 | 88 | 1015.1 |
| 20260510052853 | 49 | 158 | 2.0 | 5.0 | 0.06 | 0.07 | 0.00 | 87 | 1015.1 |
| 20260510051858 | 49 | 112 | 1.0 | 4.0 | 0.07 | 0.07 | 0.00 | 86 | 1014.7 |
| 20260510050921 | 50 | 90 | 2.0 | 5.0 | 0.07 | 0.07 | 0.00 | 85 | 1014.8 |
| 20260510045948 | 50 | 90 | 2.0 | 5.0 | 0.07 | 0.07 | 0.00 | 84 | 1015.1 |
| 20260510045013 | 51 | 158 | 2.0 | 4.0 | 0.05 | 0.05 | 0.00 | 82 | 1015.2 |
| 20260510044414 | 51 | 180 | 1.0 | 4.0 | 0.04 | 0.04 | 0.00 | 81 | 1015.2 |
| 20260510044033 | 51 | 180 | 1.0 | 4.0 | 0.04 | 0.04 | 0.00 | 81 | 1015.2 |
| 20260510043141 | 52 | 158 | 2.0 | 7.0 | 0.02 | 0.02 | 0.00 | 78 | 1015.1 |
| 20260510042338 | 52 | 158 | 2.0 | 5.0 | 0.00 | 0.00 | 0.00 | 74 | 1015.1 |
| 20260510041353 | 52 | 225 | 1.0 | 3.0 | 0.00 | 0.00 | 0.00 | 68 | 1014.9 |
| 20260510040508 | 52 | 0 | 0.0 | 2.0 | 0.00 | 0.00 | 0.00 | 67 | 1014.6 |
| 20260510035949 | 52 | 0 | 0.0 | 2.0 | 0.00 | 0.00 | 0.00 | 67 | 1014.5 |
| 20260510035623 | 52 | 0 | 0.0 | 2.0 | 0.00 | 0.00 | 0.00 | 67 | 1014.5 |
| 20260510034633 | 52 | 338 | 2.0 | 5.0 | 0.00 | 0.00 | 0.00 | 67 | 1014.4 |
| 20260510033701 | 52 | 0 | 3.0 | 7.0 | 0.00 | 0.00 | 0.00 | 66 | 1013.8 |
| 20260510032823 | 52 | 22 | 4.0 | 10.0 | 0.00 | 0.00 | 0.00 | 66 | 1013.7 |
| 20260510031955 | 52 | 0 | 5.0 | 10.0 | 0.00 | 0.00 | 0.00 | 67 | 1013.6 |
| 20260510031001 | 52 | 22 | 6.0 | 13.0 | 0.00 | 0.00 | 0.00 | 67 | 1013.0 |
| 20260510030200 | 52 | 0 | 6.0 | 15.0 | 0.00 | 0.00 | 0.00 | 67 | 1012.8 |
| 20260510025352 | 52 | 0 | 3.0 | 10.0 | 0.00 | 0.00 | 0.00 | 68 | 1012.6 |
| 20260510024353 | 52 | 0 | 4.0 | 11.0 | 0.00 | 0.00 | 0.00 | 67 | 1012.3 |
| 20260510023403 | 52 | 0 | 9.0 | 16.0 | 0.00 | 0.00 | 0.00 | 67 | 1011.4 |
| 20260510022601 | 52 | 22 | 7.0 | 14.0 | 0.00 | 0.00 | 0.00 | 67 | 1011.4 |
| 20260510021603 | 53 | 0 | 4.0 | 10.0 | 0.00 | 0.00 | 0.00 | 66 | 1011.5 |
| 20260510020728 | 53 | 0 | 7.0 | 19.0 | 0.00 | 0.00 | 0.00 | 66 | 1010.6 |
| 20260510015821 | 53 | 22 | 14.0 | 24.0 | 0.00 | 0.00 | 0.00 | 65 | 1010.5 |
| 20260510015018 | 54 | 0 | 13.0 | 21.0 | 0.00 | 0.00 | 0.00 | 65 | 1009.8 |
| 20260510014451 | 54 | 0 | 13.0 | 24.0 | 0.00 | 0.00 | 0.00 | 65 | 1009.5 |
| 20260510014040 | 54 | 0 | 13.0 | 24.0 | 0.00 | 0.00 | 0.00 | 65 | 1009.5 |
| 20260510013208 | 55 | 0 | 14.0 | 33.0 | 0.00 | 0.00 | 0.00 | 66 | 1009.2 |
| 20260510012328 | 55 | 0 | 12.0 | 23.0 | 0.00 | 0.00 | 0.00 | 64 | 1008.4 |
| 20260510011528 | 55 | 0 | 13.0 | 23.0 | 0.00 | 0.00 | 0.00 | 64 | 1008.2 |
| 20260510010812 | 56 | 0 | 17.0 | 31.0 | 0.00 | 0.00 | 0.00 | 63 | 1007.7 |
| 20260510010613 | 56 | 0 | 17.0 | 31.0 | 0.00 | 0.00 | 0.00 | 63 | 1007.7 |
| 20260510005643 | 56 | 0 | 12.0 | 24.0 | 0.00 | 0.00 | 0.00 | 62 | 1007.3 |
| 20260510004823 | 57 | 0 | 15.0 | 31.0 | 0.00 | 0.00 | 0.00 | 61 | 1007.2 |
| 20260510003848 | 58 | 0 | 15.0 | 27.0 | 0.00 | 0.00 | 0.00 | 58 | 1006.7 |
| 20260510003447 | 59 | 0 | 16.0 | 33.0 | 0.00 | 0.00 | 0.00 | 57 | 1006.8 |
| 20260510003041 | 59 | 0 | 16.0 | 33.0 | 0.00 | 0.00 | 0.00 | 57 | 1006.8 |
| 20260510002233 | 61 | 0 | 13.0 | 26.0 | 0.00 | 0.00 | 0.00 | 53 | 1006.4 |
| 20260510001358 | 65 | 22 | 15.0 | 31.0 | 0.00 | 0.00 | 0.00 | 46 | 1006.0 |
| 20260510000523 | 70 | 0 | 13.0 | 29.0 | 0.00 | 0.00 | 0.00 | 39 | 1005.5 |
| 20260509235533 | 73 | 22 | 5.0 | 15.0 | 0.00 | 0.00 | 0.00 | 30 | 1004.3 |
| 20260509234628 | 73 | 22 | 3.0 | 7.0 | 0.00 | 0.00 | 0.00 | 28 | 1003.7 |
| 20260509233753 | 74 | 22 | 5.0 | 11.0 | 0.00 | 0.00 | 0.00 | 29 | 1003.5 |
| 20260509232848 | 74 | 45 | 5.0 | 10.0 | 0.00 | 0.00 | 0.00 | 29 | 1003.4 |
| 20260509232449 | 74 | 22 | 6.0 | 12.0 | 0.00 | 0.00 | 0.00 | 28 | 1003.3 |
| 20260509232041 | 74 | 22 | 6.0 | 12.0 | 0.00 | 0.00 | 0.00 | 28 | 1003.3 |
| 20260509231449 | 74 | 45 | 7.0 | 14.0 | 0.00 | 0.00 | 0.00 | 25 | 1003.1 |
| 20260509231241 | 74 | 45 | 7.0 | 14.0 | 0.00 | 0.00 | 0.00 | 25 | 1003.1 |
| 20260509230408 | 74 | 45 | 4.0 | 8.0 | 0.00 | 0.00 | 0.00 | 25 | 1003.0 |
| 20260509225421 | 74 | 45 | 4.0 | 10.0 | 0.00 | 0.00 | 0.00 | 25 | 1003.0 |
| 20260509224613 | 75 | 22 | 4.0 | 13.0 | 0.00 | 0.00 | 0.00 | 24 | 1003.0 |
| 20260509223741 | 76 | 45 | 4.0 | 7.0 | 0.00 | 0.00 | 0.00 | 25 | 1002.8 |
| 20260509222838 | 76 | 68 | 4.0 | 12.0 | 0.00 | 0.00 | 0.00 | 27 | 1002.8 |
| 20260509222019 | 75 | 135 | 4.0 | 10.0 | 0.00 | 0.00 | 0.00 | 28 | 1002.9 |
| 20260509221133 | 74 | 45 | 7.0 | 15.0 | 0.00 | 0.00 | 0.00 | 26 | 1002.9 |
| 20260509220452 | 74 | 45 | 6.0 | 12.0 | 0.00 | 0.00 | 0.00 | 25 | 1003.1 |
| 20260509220208 | 74 | 45 | 6.0 | 12.0 | 0.00 | 0.00 | 0.00 | 25 | 1003.1 |
| 20260509215450 | 75 | 0 | 5.0 | 10.0 | 0.00 | 0.00 | 0.00 | 28 | 1003.2 |
| 20260509215333 | 74 | 45 | 5.0 | 10.0 | 0.00 | 0.00 | 0.00 | 28 | 1003.2 |
| 20260509214528 | 75 | 0 | 5.0 | 10.0 | 0.00 | 0.00 | 0.00 | 28 | 1003.2 |
| 20260509213857 | 75 | 68 | 4.0 | 11.0 | 0.00 | 0.00 | 0.00 | 25 | 1003.1 |
| 20260509213558 | 75 | 68 | 4.0 | 11.0 | 0.00 | 0.00 | 0.00 | 25 | 1003.1 |
| 20260509212907 | 75 | 68 | 5.0 | 12.0 | 0.00 | 0.00 | 0.00 | 24 | 1003.4 |
| 20260509212558 | 75 | 68 | 5.0 | 12.0 | 0.00 | 0.00 | 0.00 | 24 | 1003.4 |
| 20260509212009 | 74 | 68 | 6.0 | 11.0 | 0.00 | 0.00 | 0.00 | 24 | 1003.4 |
| 20260509211603 | 75 | 22 | 6.0 | 13.0 | 0.00 | 0.00 | 0.00 | 26 | 1003.3 |
| 20260509210658 | 74 | 68 | 6.0 | 11.0 | 0.00 | 0.00 | 0.00 | 24 | 1003.4 |
| 20260509205841 | 74 | 45 | 6.0 | 12.0 | 0.00 | 0.00 | 0.00 | 24 | 1003.6 |
| 20260509204853 | 75 | 90 | 5.0 | 12.0 | 0.00 | 0.00 | 0.00 | 26 | 1003.7 |
| 20260509203533 | 76 | 112 | 6.0 | 12.0 | 0.00 | 0.00 | 0.00 | 28 | 1003.8 |
| 20260509203151 | 76 | 112 | 6.0 | 12.0 | 0.00 | 0.00 | 0.00 | 28 | 1003.8 |
| 20260509202447 | 76 | 22 | 4.0 | 10.0 | 0.00 | 0.00 | 0.00 | 25 | 1003.8 |
| 20260509202258 | 76 | 22 | 4.0 | 10.0 | 0.00 | 0.00 | 0.00 | 25 | 1003.8 |
| 20260509201433 | 75 | 112 | 3.0 | 7.0 | 0.00 | 0.00 | 0.00 | 24 | 1003.9 |
| 20260509200448 | 76 | 68 | 7.0 | 13.0 | 0.00 | 0.00 | 0.00 | 24 | 1004.0 |
| 20260509195603 | 76 | 90 | 4.0 | 10.0 | 0.00 | 0.00 | 0.00 | 23 | 1004.0 |
| 20260509194726 | 76 | 248 | 3.0 | 11.0 | 0.00 | 0.00 | 0.00 | 22 | 1004.1 |
| 20260509194647 | 76 | 248 | 3.0 | 11.0 | 0.00 | 0.00 | 0.00 | 22 | 1004.1 |
| 20260509192751 | 77 | 180 | 5.0 | 10.0 | 0.00 | 0.00 | 0.00 | 26 | 1004.1 |